Tracking 27423 objects as of 8-Jun-2023
HD Live streaming from Space Station
objects crossing your sky now

FLOCK 4S 5

Track FLOCK 4S 5 now!
10-day predictions
FLOCK 4S 5 is classified as:


NORAD ID: 47515
Int'l Code: 2021-006DF
Perigee: 477.1 km
Apogee: 488.6 km
Inclination: 97.4 °
Period: 94.1 minutes
Semi major axis: 6853 km
RCS: Unknown
Launch date: January 24, 2021
Source: United States (US)
Launch site: AIR FORCE EASTERN TEST RANGE (AFETR)
Your satellite tracking list
Your tracking list is empty




NASA's NSSDC Master Catalog

Two Line Element Set (TLE):
1 47515U 21006DF  23159.15706521  .00011782  00000-0  40736-3 0  9990
2 47515  97.3813 217.1164 0008419 115.5062 244.7050 15.30026521131337
Source of the keplerian elements: AFSPC